Home > Weather > Norden > Past weeks

Flag for Germany Past Weather in Norden, Lower Saxony, Germany — Yesterday and Last 2 Weeks

Now
62 °F

Overcast.


Feels Like: 62 °F
Forecast: 56 / 63 °F
Wind: 6 mph from Southwest

Location: Emden-Koenigspolder

Current Time: Jun 27, 2016 at 11:32:12 AM

Latest Report: Jun 27, 2016 at 10:00 AM


Visibility: 7 mi

Pressure: 29.97 "Hg

Humidity: 81%

Dew Point: 56 °F

Location of NordenLocation

Past Weather in Norden — Graph

°F

Norden Temperature Yesterday

Maximum temperature yesterday: 64 °F (at 7:00 PM)
Minimum temperature yesterday: 55 °F (at 6:00 AM)
Average temperature yesterday: 59 °F

High & Low Weather Summary for the Past Weeks

 TemperatureHumidityPressure
High80 °F (Jun 23, 1:00 PM)100% (Jun 14, 12:00 AM)30.24 "Hg (Jun 14, 12:00 AM)
Low52 °F (Jun 16, 6:00 AM)54% (Jun 22, 4:00 PM)29.41 "Hg (Jun 14, 6:00 PM)
Average61 °F84%29.87 "Hg
* Reported Jun 12 10:00 AM — Jun 27 10:00 AM, Norden, Weather by CustomWeather, © 2016

Note: Actual official high and low records may vary slightly from our data, if they occured in-between our weather recording intervals... More about our weather records

Advertising

Norden Weather History for the Previous 24 Hours

Scroll right to see more
 ConditionsComfort  
Time TempWeatherWind HumidityBarometerVisibility
10:00 AM
Mon, Jun 27
62 °FOvercast.6 mph81%29.97 "Hg7 mi
9:00 AM60 °FLow clouds.6 mph86%29.96 "Hg6 mi
7:00 AM57 °FOvercast.3 mph90%29.97 "Hg6 mi
6:00 AM56 °FPartly sunny.5 mph90%29.97 "Hg6 mi
4:00 AM55 °FPassing clouds.5 mph90%29.99 "Hg11 mi
3:00 AM55 °FOvercast.3 mph88%30.00 "Hg12 mi
2:00 AMN/APassing clouds.5 mphN/AN/A3 mi
1:00 AM55 °FOvercast.2 mph87%30.00 "Hg14 mi
12:00 AM56 °FOvercast.2 mph84%30.02 "Hg17 mi
10:00 PM
Sun, Jun 26
59 °FDrizzle. Partly sunny.3 mph82%29.99 "Hg9 mi
9:00 PM60 °FPartly sunny.3 mph83%29.98 "Hg17 mi
7:00 PM64 °FScattered clouds.5 mph73%29.97 "Hg34 mi
6:00 PM61 °FLight rain. Overcast.5 mph83%29.99 "Hg16 mi
4:00 PM57 °FLight rain. Overcast.5 mph90%29.99 "Hg17 mi
3:00 PM56 °FHeavy rain. Overcast.3 mph93%29.99 "Hg3 mi
1:00 PM63 °FLight rain. Overcast.6 mph68%29.97 "Hg25 mi
12:00 PM62 °FPartly sunny.7 mph70%29.97 "Hg22 mi
Weather by CustomWeather, © 2016

See weather overviewHow to use our weather pages